{"data":{"norad_id":59181,"epoch":"2026-05-25T00:37:57.046080Z","epoch_age_seconds":66759,"freshness":"FRESH","line1":"1 59181U 24045D   26145.02635470  .00002594  00000+0  10376-3 0  9993","line2":"2 59181  43.0012  18.1863 0001120 255.7750 104.2977 15.27576582124878","mean_motion":15.27576582,"eccentricity":0.000112,"inclination_deg":43.0012,"raan_deg":18.1863,"arg_perigee_deg":255.775,"mean_anomaly_deg":104.2977,"bstar":0.00010376,"rev_number":12487,"period_min":94.266959638427,"perigee_km":482.29087679131,"apogee_km":483.8277847694,"semimajor_km":6861.1963307804,"source":"CELESTRAK","updated_at":"2026-05-25T13:38:18.838231Z"}}